,,Stat6,,Stat2,,Stat8,,Stat9,,Stat10,,Wind1,,Wind1,
time,status,PA1M_AVG,status,PR1M_SUM,status,RH1M_AVG,status,SR1M_AVG,status,TA1M_AVG,status,W1dAve1m,status,W1sAve1m,
2005-04-10, 00:00:01,VALID,919.798,VALID,0,VALID,97.3235,VALID,-0.0169808,VALID,20.2097,VALID,11,VALID,0.17242,
2005-04-10, 00:01:00,VALID,919.779,VALID,0,VALID,97.3973,VALID,0,VALID,20.2228,VALID,11,VALID,0.0442073,
2005-04-10, 00:02:01,VALID,919.751,VALID,0,VALID,97.5015,VALID,-0.0169808,VALID,20.2064,VALID,11,VALID,0.0832698,
2005-04-10, 00:03:01,VALID,919.744,VALID,0,VALID,97.5028,VALID,-0.0169808,VALID,20.2,VALID,11,VALID,0.308594,
2005-04-10, 00:04:01,VALID,919.732,VALID,0,VALID,97.5194,VALID,-0.0169808,VALID,20.1968,VALID,21,VALID,0.38244,
2005-04-10, 00:05:00,VALID,919.728,VALID,0,VALID,97.574,VALID,-0.0169808,VALID,20.1935,VALID,12,VALID,0.659268,
2005-04-10, 00:06:01,VALID,919.72,VALID,0,VALID,97.4952,VALID,0,VALID,20.2132,VALID,10,VALID,0.368823,
2005-04-10, 00:07:00,VALID,919.704,VALID,0,VALID,97.4507,VALID,0,VALID,20.2102,VALID,10,VALID,0.107195,
2005-04-10, 00:08:00,VALID,919.694,VALID,0,VALID,97.5435,VALID,0,VALID,20.2166,VALID,10,VALID,0.00472384,
2005-04-10, 00:09:00,VALID,919.689,VALID,0,VALID,97.5677,VALID,-0.0169808,VALID,20.2064,VALID,9,VALID,0.303977,
2005-04-10, 00:10:00,VALID,919.691,VALID,0,VALID,97.5639,VALID,0,VALID,20.2102,VALID,4,VALID,0.505451,
2005-04-10, 00:11:01,VALID,919.694,VALID,0,VALID,97.6198,VALID,0,VALID,20.2067,VALID,4,VALID,0.0749628,
2005-04-10, 00:12:01,VALID,919.7,VALID,0,VALID,97.5384,VALID,-0.0169808,VALID,20.2102,VALID,4,VALID,0.00104167,
2005-04-10, 00:13:01,VALID,919.706,VALID,0,VALID,97.41,VALID,0,VALID,20.2102,VALID,310,VALID,0.214558,
2005-04-10, 00:14:01,VALID,919.726,VALID,0,VALID,97.4278,VALID,-0.0169808,VALID,20.2032,VALID,257,VALID,0.117378,
2005-04-10, 00:15:00,VALID,919.718,VALID,0,VALID,97.368,VALID,0,VALID,20.2261,VALID,257,VALID,0.0520833,
2005-04-10, 00:16:00,VALID,919.708,VALID,0,VALID,97.2739,VALID,-0.0169808,VALID,20.2358,VALID,278,VALID,0.168403,
2005-04-10, 00:17:01,VALID,919.707,VALID,0,VALID,97.0921,VALID,0,VALID,20.2425,VALID,322,VALID,0.114826,
2005-04-10, 00:18:00,VALID,919.69,VALID,0,VALID,96.7907,VALID,0,VALID,20.2064,VALID,322,VALID,0,
2005-04-10, 00:19:01,VALID,919.68,VALID,0,VALID,96.8975,VALID,0,VALID,20.1968,VALID,334,VALID,0,
2005-04-10, 00:20:00,VALID,919.668,VALID,0,VALID,96.9141,VALID,0,VALID,20.1612,VALID,10,VALID,0.533381,
2005-04-10, 00:21:01,VALID,919.683,VALID,0,VALID,96.7577,VALID,0,VALID,20.1096,VALID,19,VALID,0.728693,
2005-04-10, 00:22:01,VALID,919.675,VALID,0,VALID,97.3324,VALID,-0.0339617,VALID,20.0813,VALID,15,VALID,0.779102,
2005-04-10, 00:23:01,VALID,919.67,VALID,0,VALID,97.5219,VALID,0,VALID,20.0678,VALID,15,VALID,0.86044,
2005-04-10, 00:24:01,VALID,919.655,VALID,0,VALID,97.6058,VALID,0.0169808,VALID,20.0477,VALID,14,VALID,0.612537,
2005-04-10, 00:25:01,VALID,919.653,VALID,0,VALID,97.6147,VALID,0.0169808,VALID,20.0519,VALID,10,VALID,0.607887,
2005-04-10, 00:26:01,VALID,919.657,VALID,0,VALID,97.7749,VALID,0,VALID,20.0447,VALID,10,VALID,0.717507,
2005-04-10, 00:27:01,VALID,919.664,VALID,0,VALID,97.7432,VALID,0.0169808,VALID,20.0683,VALID,10,VALID,0.373365,
2005-04-10, 00:28:01,VALID,919.674,VALID,0,VALID,97.8271,VALID,-0.0169808,VALID,20.0751,VALID,10,VALID,0.523615,
2005-04-10, 00:29:01,VALID,919.682,VALID,0,VALID,97.7215,VALID,0,VALID,20.0939,VALID,9,VALID,0.729469,
2005-04-10, 00:30:01,VALID,919.681,VALID,0,VALID,97.6046,VALID,0,VALID,20.1198,VALID,9,VALID,0.851563,
2005-04-10, 00:31:01,VALID,919.685,VALID,0,VALID,97.3935,VALID,0,VALID,20.1354,VALID,8,VALID,0.918255,
2005-04-10, 00:32:01,VALID,919.672,VALID,0,VALID,97.1989,VALID,0,VALID,20.1548,VALID,350,VALID,0.807465,
2005-04-10, 00:33:01,VALID,919.662,VALID,0,VALID,97.115,VALID,0,VALID,20.1717,VALID,351,VALID,0.533249,
2005-04-10, 00:34:01,VALID,919.654,VALID,0,VALID,97.0514,VALID,0,VALID,20.1515,VALID,351,VALID,0.524826,
2005-04-10, 00:35:01,VALID,919.63,VALID,0,VALID,96.9802,VALID,-0.0169808,VALID,20.1357,VALID,357,VALID,0.62207,
2005-04-10, 00:36:01,VALID,919.598,VALID,0,VALID,96.9204,VALID,-0.0169808,VALID,20.1098,VALID,351,VALID,0.641578,
2005-04-10, 00:37:01,VALID,919.582,VALID,0,VALID,97.0883,VALID,-0.0169808,VALID,20.1103,VALID,348,VALID,0.85174,
2005-04-10, 00:38:01,VALID,919.561,VALID,0,VALID,97.0005,VALID,0,VALID,20.1163,VALID,7,VALID,0.763719,
2005-04-10, 00:39:01,VALID,919.567,VALID,0,VALID,96.8556,VALID,0,VALID,20.1227,VALID,344,VALID,0.883185,
2005-04-10, 00:40:01,VALID,919.576,VALID,0,VALID,96.6737,VALID,-0.0169808,VALID,20.1486,VALID,351,VALID,0.277716,
2005-04-10, 00:41:01,VALID,919.57,VALID,0,VALID,96.5567,VALID,-0.0169808,VALID,20.1583,VALID,352,VALID,0,
2005-04-10, 00:42:01,VALID,919.585,VALID,0,VALID,96.5479,VALID,-0.0169808,VALID,20.1583,VALID,352,VALID,0.20957,
2005-04-10, 00:43:01,VALID,919.585,VALID,0,VALID,96.511,VALID,0,VALID,20.1483,VALID,329,VALID,0.377725,
2005-04-10, 00:44:01,VALID,919.578,VALID,0,VALID,96.5936,VALID,0,VALID,20.1521,VALID,231,VALID,0.364583,
2005-04-10, 00:45:01,VALID,919.591,VALID,0,VALID,96.6076,VALID,0,VALID,20.1453,VALID,229,VALID,0.0548611,
2005-04-10, 00:46:01,VALID,919.596,VALID,0,VALID,96.6267,VALID,-0.0169808,VALID,20.1456,VALID,237,VALID,0.156808,
2005-04-10, 00:47:01,VALID,919.596,VALID,0,VALID,96.5618,VALID,-0.0339617,VALID,20.1136,VALID,353,VALID,0.562109,
2005-04-10, 00:48:01,VALID,919.605,VALID,0,VALID,96.7004,VALID,-0.0509425,VALID,20.0907,VALID,353,VALID,0.376715,
2005-04-10, 00:49:01,VALID,919.583,VALID,0,VALID,96.7882,VALID,0,VALID,20.0875,VALID,352,VALID,0.00708576,
2005-04-10, 00:50:01,VALID,919.561,VALID,0,VALID,96.7907,VALID,-0.0169808,VALID,20.0775,VALID,352,VALID,0.0792969,
2005-04-10, 00:51:01,VALID,919.532,VALID,0,VALID,96.8022,VALID,0,VALID,20.088,VALID,352,VALID,0,
2005-04-10, 00:52:01,VALID,919.512,VALID,0,VALID,96.8581,VALID,-0.0339617,VALID,20.0748,VALID,352,VALID,0,
2005-04-10, 00:53:01,VALID,919.48,VALID,0,VALID,96.7195,VALID,0,VALID,20.0455,VALID,352,VALID,0.228924,
2005-04-10, 00:54:01,VALID,919.449,VALID,0,VALID,96.6801,VALID,0,VALID,20.0095,VALID,352,VALID,0.308408,
2005-04-10, 00:55:01,VALID,919.418,VALID,0,VALID,96.9929,VALID,0,VALID,19.9809,VALID,352,VALID,0.213663,
2005-04-10, 00:56:00,VALID,919.376,VALID,0,VALID,97.2421,VALID,-0.0169808,VALID,19.9841,VALID,352,VALID,0.0846354,
2005-04-10, 00:57:00,VALID,919.34,VALID,0,VALID,97.0056,VALID,0,VALID,19.965,VALID,352,VALID,0.375908,
2005-04-10, 00:58:00,VALID,919.332,VALID,0,VALID,96.7437,VALID,0,VALID,19.8932,VALID,352,VALID,0.727679,
2005-04-10, 00:59:00,VALID,919.324,VALID,0,VALID,97.2358,VALID,0,VALID,19.8515,VALID,353,VALID,0.501635,
2005-04-10, 01:00:00,VALID,919.339,VALID,0,VALID,97.6046,VALID,0,VALID,19.8386,VALID,353,VALID,0.140807,
2005-04-10, 01:01:00,VALID,919.329,VALID,0,VALID,97.6618,VALID,0.0339617,VALID,19.8391,VALID,353,VALID,0.157584,
2005-04-10, 01:02:00,VALID,919.338,VALID,0,VALID,97.6529,VALID,0.0169808,VALID,19.812,VALID,353,VALID,0.502907,
2005-04-10, 01:03:00,VALID,919.349,VALID,0,VALID,97.5639,VALID,0.0169808,VALID,19.7904,VALID,353,VALID,0.544389,
2005-04-10, 01:04:00,VALID,919.347,VALID,0,VALID,97.7012,VALID,0,VALID,19.7675,VALID,353,VALID,0.50744,
2005-04-10, 01:05:00,VALID,919.35,VALID,0,VALID,97.8525,VALID,0,VALID,19.7546,VALID,352,VALID,0.47061,
2005-04-10, 01:06:00,VALID,919.35,VALID,0,VALID,98.0026,VALID,0,VALID,19.7479,VALID,352,VALID,0.236555,
2005-04-10, 01:07:00,VALID,919.364,VALID,0,VALID,98.042,VALID,0,VALID,19.7385,VALID,352,VALID,0.0275391,
2005-04-10, 01:08:00,VALID,919.372,VALID,0,VALID,98.1755,VALID,0,VALID,19.7487,VALID,352,VALID,0,
2005-04-10, 01:09:00,VALID,919.356,VALID,0,VALID,98.3357,VALID,0,VALID,19.7484,VALID,352,VALID,0,
2005-04-10, 01:10:00,VALID,919.35,VALID,0,VALID,98.3256,VALID,-0.0169808,VALID,19.7678,VALID,352,VALID,0.105373,
2005-04-10, 01:11:00,VALID,919.34,VALID,0,VALID,97.9822,VALID,-0.0169808,VALID,19.7489,VALID,352,VALID,0.434201,
2005-04-10, 01:12:00,VALID,919.327,VALID,0,VALID,97.7355,VALID,0,VALID,19.6898,VALID,352,VALID,0.443859,
2005-04-10, 01:13:00,VALID,919.337,VALID,0,VALID,97.9046,VALID,0,VALID,19.6677,VALID,352,VALID,0.360283,
2005-04-10, 01:14:00,VALID,919.34,VALID,0,VALID,98.4184,VALID,0,VALID,19.7035,VALID,352,VALID,0.313743,
2005-04-10, 01:15:00,VALID,919.349,VALID,0,VALID,98.5265,VALID,0,VALID,19.7293,VALID,352,VALID,0.0138889,
2005-04-10, 01:16:00,VALID,919.343,VALID,0,VALID,98.5595,VALID,-0.0339617,VALID,19.7452,VALID,352,VALID,0,
2005-04-10, 01:17:00,VALID,919.339,VALID,0,VALID,98.5494,VALID,-0.0169808,VALID,19.7718,VALID,352,VALID,0.0224359,
2005-04-10, 01:18:00,VALID,919.329,VALID,0,VALID,98.4095,VALID,0,VALID,19.7906,VALID,354,VALID,0.625347,
2005-04-10, 01:19:00,VALID,919.305,VALID,0,VALID,98.2938,VALID,-0.0169808,VALID,19.8291,VALID,13,VALID,0.821837,
2005-04-10, 01:20:00,VALID,919.287,VALID,0,VALID,97.6898,VALID,-0.0339617,VALID,19.8065,VALID,13,VALID,0.761458,
2005-04-10, 01:21:00,VALID,919.288,VALID,0,VALID,97.7978,VALID,0,VALID,19.7906,VALID,3,VALID,0.958394,
2005-04-10, 01:22:00,VALID,919.294,VALID,0,VALID,97.8284,VALID,0,VALID,19.8006,VALID,348,VALID,0.646205,
2005-04-10, 01:23:00,VALID,919.291,VALID,0,VALID,97.7508,VALID,-0.0339617,VALID,19.8105,VALID,17,VALID,0.743712,
2005-04-10, 01:24:00,VALID,919.301,VALID,0,VALID,97.5143,VALID,-0.0169808,VALID,19.7971,VALID,351,VALID,0.720982,
2005-04-10, 01:25:00,VALID,919.303,VALID,0,VALID,97.6707,VALID,0,VALID,19.8132,VALID,354,VALID,0.813834,
2005-04-10, 01:26:00,VALID,919.303,VALID,0,VALID,97.5867,VALID,-0.0339617,VALID,19.8334,VALID,3,VALID,0.798295,
2005-04-10, 01:27:00,VALID,919.319,VALID,0,VALID,97.4303,VALID,0,VALID,19.8202,VALID,355,VALID,0.856831,
2005-04-10, 01:28:00,VALID,919.323,VALID,0,VALID,97.5397,VALID,-0.0169808,VALID,19.8272,VALID,358,VALID,0.804297,
2005-04-10, 01:29:00,VALID,919.313,VALID,0,VALID,97.6236,VALID,-0.0339617,VALID,19.8331,VALID,349,VALID,1.04271,
2005-04-10, 01:30:00,VALID,919.332,VALID,0,VALID,97.5333,VALID,0,VALID,19.8654,VALID,354,VALID,0.712936,
2005-04-10, 01:31:00,VALID,919.318,VALID,0,VALID,97.3668,VALID,-0.0169808,VALID,19.8649,VALID,342,VALID,0.755394,
2005-04-10, 01:32:00,VALID,919.306,VALID,0,VALID,97.3833,VALID,-0.0169808,VALID,19.8716,VALID,346,VALID,1.1592,
2005-04-10, 01:33:00,VALID,919.284,VALID,0,VALID,97.2345,VALID,0,VALID,19.8816,VALID,353,VALID,0.65625,
2005-04-10, 01:34:00,VALID,919.258,VALID,0,VALID,97.2434,VALID,-0.0169808,VALID,19.8719,VALID,351,VALID,1.03906,
2005-04-10, 01:35:00,VALID,919.251,VALID,0,VALID,97.1684,VALID,0,VALID,19.888,VALID,355,VALID,1.1317,
2005-04-10, 01:36:00,VALID,919.219,VALID,0,VALID,97.0374,VALID,0.0169808,VALID,19.8972,VALID,1,VALID,0.971946,
2005-04-10, 01:37:00,VALID,919.204,VALID,0,VALID,96.9865,VALID,-0.0169808,VALID,19.891,VALID,339,VALID,0.814732,
2005-04-10, 01:38:00,VALID,919.188,VALID,0,VALID,97.0641,VALID,0,VALID,19.8878,VALID,318,VALID,0.371761,
2005-04-10, 01:39:00,VALID,919.164,VALID,0,VALID,97.1811,VALID,-0.0339617,VALID,19.8883,VALID,314,VALID,0.0967014,
2005-04-10, 01:40:00,VALID,919.137,VALID,0,VALID,97.2485,VALID,-0.0339617,VALID,19.8945,VALID,314,VALID,0.118118,
2005-04-10, 01:41:00,VALID,919.109,VALID,0,VALID,97.2638,VALID,0,VALID,19.8942,VALID,314,VALID,0.0445668,
2005-04-10, 01:42:00,VALID,919.101,VALID,0,VALID,97.2701,VALID,-0.0169808,VALID,19.8905,VALID,352,VALID,0.33505,
2005-04-10, 01:43:00,VALID,919.091,VALID,0,VALID,97.1201,VALID,-0.0169808,VALID,19.9201,VALID,3,VALID,0.199123,
2005-04-10, 01:44:00,VALID,919.062,VALID,0,VALID,97.0056,VALID,0,VALID,19.9297,VALID,289,VALID,0.435976,
2005-04-10, 01:45:00,VALID,919.053,VALID,0,VALID,96.9128,VALID,0,VALID,19.933,VALID,254,VALID,0.428085,
2005-04-10, 01:46:00,VALID,919.031,VALID,0,VALID,96.6076,VALID,-0.0169808,VALID,19.9432,VALID,287,VALID,0.295455,
2005-04-10, 01:47:00,VALID,919.035,VALID,0,VALID,96.5466,VALID,-0.0169808,VALID,19.9012,VALID,293,VALID,0.0184152,
2005-04-10, 01:48:00,VALID,919.026,VALID,0,VALID,96.8034,VALID,-0.0339617,VALID,19.8808,VALID,344,VALID,0.258398,
2005-04-10, 01:49:00,VALID,919.031,VALID,0,VALID,96.8327,VALID,0,VALID,19.8945,VALID,351,VALID,0.110305,
2005-04-10, 01:50:00,VALID,919.034,VALID,0,VALID,96.8047,VALID,-0.0169808,VALID,19.9039,VALID,311,VALID,0.188058,
2005-04-10, 01:51:00,VALID,919.037,VALID,0,VALID,96.6725,VALID,-0.0169808,VALID,19.9069,VALID,310,VALID,0.592842,
2005-04-10, 01:52:00,VALID,919.049,VALID,0,VALID,96.5555,VALID,0,VALID,19.9133,VALID,4,VALID,1.11403,
2005-04-10, 01:53:00,VALID,919.051,VALID,0,VALID,96.3088,VALID,-0.0169808,VALID,19.9427,VALID,358,VALID,0.339472,
2005-04-10, 01:54:00,VALID,919.039,VALID,0,VALID,96.1079,VALID,0,VALID,19.9422,VALID,359,VALID,0.449405,
2005-04-10, 01:55:00,VALID,919.036,VALID,0,VALID,96.0061,VALID,0,VALID,19.8935,VALID,357,VALID,0.484003,
2005-04-10, 01:56:00,VALID,919.032,VALID,0,VALID,96.2554,VALID,-0.0169808,VALID,19.9014,VALID,355,VALID,0.139672,
2005-04-10, 01:57:00,VALID,919.018,VALID,0,VALID,96.4131,VALID,0,VALID,19.8843,VALID,355,VALID,0,
2005-04-10, 01:58:00,VALID,918.993,VALID,0,VALID,96.4766,VALID,0,VALID,19.8617,VALID,355,VALID,0,
2005-04-10, 01:59:00,VALID,918.978,VALID,0,VALID,96.5479,VALID,0,VALID,19.8652,VALID,355,VALID,0.2629,
2005-04-10, 02:00:00,VALID,918.947,VALID,0,VALID,96.5758,VALID,-0.0169808,VALID,19.8386,VALID,355,VALID,0.321429,
2005-04-10, 02:01:00,VALID,918.927,VALID,0,VALID,96.8429,VALID,0,VALID,19.8162,VALID,355,VALID,0.185865,
2005-04-10, 02:02:00,VALID,918.923,VALID,0,VALID,96.9738,VALID,0,VALID,19.8065,VALID,355,VALID,0.0960366,
2005-04-10, 02:03:00,VALID,918.93,VALID,0,VALID,97.1697,VALID,0,VALID,19.8003,VALID,355,VALID,0.00327035,
2005-04-10, 02:04:00,VALID,918.941,VALID,0,VALID,97.3172,VALID,0,VALID,19.807,VALID,355,VALID,0,
2005-04-10, 02:05:00,VALID,918.937,VALID,0,VALID,97.3795,VALID,0.0169808,VALID,19.7936,VALID,355,VALID,0,
2005-04-10, 02:06:00,VALID,918.956,VALID,0,VALID,97.5333,VALID,0.0169808,VALID,19.7939,VALID,355,VALID,0,
2005-04-10, 02:07:00,VALID,918.948,VALID,0,VALID,97.5003,VALID,0.0169808,VALID,19.7613,VALID,355,VALID,0.00167411,
2005-04-10, 02:08:00,VALID,918.934,VALID,0,VALID,97.6224,VALID,0.0339617,VALID,19.7417,VALID,355,VALID,0.212843,
2005-04-10, 02:09:00,VALID,918.935,VALID,0,VALID,97.7076,VALID,0.0169808,VALID,19.7353,VALID,355,VALID,0.498437,
2005-04-10, 02:10:00,VALID,918.924,VALID,0,VALID,97.7635,VALID,0.0169808,VALID,19.7328,VALID,352,VALID,0.751674,
2005-04-10, 02:11:00,VALID,918.928,VALID,0,VALID,97.6605,VALID,0,VALID,19.7132,VALID,355,VALID,0.818314,
2005-04-10, 02:12:00,VALID,918.918,VALID,0,VALID,97.5511,VALID,0,VALID,19.7233,VALID,349,VALID,0.825462,
2005-04-10, 02:13:00,VALID,918.916,VALID,0,VALID,97.4672,VALID,0,VALID,19.7132,VALID,344,VALID,0.970753,
2005-04-10, 02:14:00,VALID,918.902,VALID,0,VALID,97.3286,VALID,0,VALID,19.739,VALID,323,VALID,0.714935,
2005-04-10, 02:15:00,VALID,918.894,VALID,0,VALID,97.1964,VALID,0,VALID,19.7713,VALID,6,VALID,0.513626,
2005-04-10, 02:16:00,VALID,918.901,VALID,0,VALID,97.0883,VALID,0.0169808,VALID,19.8167,VALID,19,VALID,0.0299782,
2005-04-10, 02:17:00,VALID,918.894,VALID,0,VALID,96.9688,VALID,0.0169808,VALID,19.8361,VALID,19,VALID,0.00890262,
2005-04-10, 02:18:00,VALID,918.892,VALID,0,VALID,96.8429,VALID,0,VALID,19.8354,VALID,19,VALID,0.0720703,
2005-04-10, 02:19:00,VALID,918.906,VALID,0,VALID,96.6559,VALID,0,VALID,19.8527,VALID,9,VALID,0.397321,
2005-04-10, 02:20:00,VALID,918.91,VALID,0,VALID,96.5275,VALID,-0.101885,VALID,19.853,VALID,3,VALID,0.228743,
2005-04-10, 02:21:00,VALID,918.923,VALID,0,VALID,96.3469,VALID,-0.0679233,VALID,19.8696,VALID,2,VALID,0.106326,
2005-04-10, 02:22:00,VALID,918.915,VALID,0,VALID,96.3787,VALID,-0.101885,VALID,19.8597,VALID,2,VALID,0.0838914,
2005-04-10, 02:23:00,VALID,918.924,VALID,0,VALID,96.3736,VALID,-0.0849042,VALID,19.8791,VALID,2,VALID,0,
2005-04-10, 02:24:00,VALID,918.926,VALID,0,VALID,96.2872,VALID,-0.0849042,VALID,19.8952,VALID,2,VALID,0,
2005-04-10, 02:25:00,VALID,918.93,VALID,0,VALID,96.1041,VALID,-0.0849042,VALID,19.9149,VALID,2,VALID,0.00109012,
2005-04-10, 02:26:00,VALID,918.927,VALID,0,VALID,95.8688,VALID,-0.101885,VALID,19.9442,VALID,2,VALID,0.208757,
2005-04-10, 02:27:00,VALID,918.932,VALID,0,VALID,95.6208,VALID,-0.118866,VALID,19.9797,VALID,2,VALID,0.252096,
2005-04-10, 02:28:00,VALID,918.931,VALID,0,VALID,95.4784,VALID,-0.0509425,VALID,19.9765,VALID,2,VALID,0.218378,
2005-04-10, 02:29:00,VALID,918.939,VALID,0,VALID,95.4263,VALID,-0.0849042,VALID,19.9832,VALID,352,VALID,0.419779,
2005-04-10, 02:30:00,VALID,918.935,VALID,0,VALID,95.3729,VALID,-0.101885,VALID,20.0088,VALID,346,VALID,0.307173,
2005-04-10, 02:31:00,VALID,918.928,VALID,0,VALID,95.3729,VALID,-0.101885,VALID,20.0015,VALID,318,VALID,0.329985,
2005-04-10, 02:32:00,VALID,918.907,VALID,0,VALID,95.1974,VALID,-0.101885,VALID,20.0184,VALID,348,VALID,0.463844,
2005-04-10, 02:33:00,VALID,918.908,VALID,0,VALID,95.0741,VALID,-0.101885,VALID,20.0088,VALID,10,VALID,0.957403,
2005-04-10, 02:34:00,VALID,918.9,VALID,0,VALID,95.1491,VALID,-0.101885,VALID,19.9762,VALID,354,VALID,0.942909,
2005-04-10, 02:35:00,VALID,918.888,VALID,0,VALID,95.2406,VALID,-0.101885,VALID,19.9765,VALID,11,VALID,0.88529,
2005-04-10, 02:36:00,VALID,918.898,VALID,0,VALID,95.2368,VALID,-0.101885,VALID,19.9625,VALID,9,VALID,1.19271,
2005-04-10, 02:37:00,VALID,918.896,VALID,0,VALID,95.1936,VALID,-0.101885,VALID,19.9794,VALID,358,VALID,0.680414,
2005-04-10, 02:38:00,VALID,918.878,VALID,0,VALID,95.1605,VALID,-0.0849042,VALID,19.9794,VALID,342,VALID,0.542773,
2005-04-10, 02:39:00,VALID,918.862,VALID,0,VALID,95.1198,VALID,-0.101885,VALID,19.9692,VALID,8,VALID,0.228016,
2005-04-10, 02:40:00,VALID,918.833,VALID,0,VALID,95.1313,VALID,-0.0679233,VALID,19.9531,VALID,317,VALID,0.379523,
2005-04-10, 02:41:00,VALID,918.813,VALID,0,VALID,95.0855,VALID,-0.0849042,VALID,19.9725,VALID,241,VALID,0.441134,
2005-04-10, 02:42:00,VALID,918.796,VALID,0,VALID,94.8223,VALID,-0.0679233,VALID,20.011,VALID,298,VALID,0.643043,
2005-04-10, 02:43:00,VALID,918.784,VALID,0,VALID,94.5374,VALID,-0.0849042,VALID,20.0532,VALID,344,VALID,0.85332,
2005-04-10, 02:44:00,VALID,918.771,VALID,0,VALID,94.2195,VALID,-0.0849042,VALID,20.0823,VALID,345,VALID,0.640625,
2005-04-10, 02:45:00,VALID,918.766,VALID,0,VALID,94.1331,VALID,-0.0509425,VALID,20.0984,VALID,360,VALID,0.402521,
2005-04-10, 02:46:00,VALID,918.75,VALID,0,VALID,94.1471,VALID,-0.0679233,VALID,20.0858,VALID,360,VALID,0.391897,
2005-04-10, 02:47:00,VALID,918.767,VALID,0,VALID,94.3073,VALID,-0.101885,VALID,20.0763,VALID,359,VALID,0.0399709,
2005-04-10, 02:48:00,VALID,918.763,VALID,0,VALID,94.32,VALID,-0.101885,VALID,20.083,VALID,322,VALID,0.40189,
2005-04-10, 02:49:00,VALID,918.731,VALID,0,VALID,94.3047,VALID,-0.101885,VALID,20.0564,VALID,308,VALID,0.472656,
2005-04-10, 02:50:00,VALID,918.733,VALID,0,VALID,94.3276,VALID,-0.101885,VALID,20.0634,VALID,341,VALID,0.478981,
2005-04-10, 02:51:00,VALID,918.74,VALID,0,VALID,94.2501,VALID,-0.101885,VALID,20.0987,VALID,312,VALID,0.686942,
2005-04-10, 02:52:00,VALID,918.747,VALID,0,VALID,94.142,VALID,-0.0679233,VALID,20.1089,VALID,323,VALID,0.44043,
2005-04-10, 02:53:00,VALID,918.743,VALID,0,VALID,94.2005,VALID,-0.101885,VALID,20.0863,VALID,337,VALID,0.601563,
2005-04-10, 02:54:00,VALID,918.753,VALID,0,VALID,94.3378,VALID,-0.0679233,VALID,20.0666,VALID,340,VALID,0.81032,
2005-04-10, 02:55:00,VALID,918.755,VALID,0,VALID,94.3086,VALID,-0.0849042,VALID,20.1049,VALID,314,VALID,0.342842,
2005-04-10, 02:56:00,VALID,918.732,VALID,0,VALID,94.1382,VALID,-0.0849042,VALID,20.1344,VALID,309,VALID,0.000181686,
2005-04-10, 02:57:00,VALID,918.714,VALID,0,VALID,94.0631,VALID,-0.101885,VALID,20.1312,VALID,346,VALID,0.293423,
2005-04-10, 02:58:00,VALID,918.713,VALID,0,VALID,93.7961,VALID,-0.0679233,VALID,20.1113,VALID,357,VALID,0.358774,
2005-04-10, 02:59:00,VALID,918.726,VALID,0,VALID,93.9957,VALID,-0.101885,VALID,20.1056,VALID,357,VALID,0.282848,
2005-04-10, 03:00:00,VALID,918.721,VALID,0,VALID,94.0898,VALID,-0.0849042,VALID,20.1059,VALID,357,VALID,0.387153,
2005-04-10, 03:01:00,VALID,918.714,VALID,0,VALID,94.0313,VALID,-0.101885,VALID,20.0957,VALID,357,VALID,0.264258,
2005-04-10, 03:02:00,VALID,918.709,VALID,0,VALID,93.8152,VALID,-0.0679233,VALID,20.0112,VALID,357,VALID,0.565549,
2005-04-10, 03:03:00,VALID,918.715,VALID,0,VALID,94.5451,VALID,-0.0849042,VALID,19.9248,VALID,357,VALID,0.367374,
2005-04-10, 03:04:00,VALID,918.714,VALID,0,VALID,94.9469,VALID,-0.0679233,VALID,19.8853,VALID,357,VALID,0.0886009,
2005-04-10, 03:05:00,VALID,918.725,VALID,0,VALID,95.1186,VALID,0,VALID,19.8709,VALID,357,VALID,0,
2005-04-10, 03:06:00,VALID,918.712,VALID,0,VALID,95.158,VALID,0,VALID,19.8515,VALID,357,VALID,0,
2005-04-10, 03:07:00,VALID,918.7,VALID,0,VALID,95.1974,VALID,-0.0169808,VALID,19.8222,VALID,357,VALID,0,
2005-04-10, 03:08:00,VALID,918.7,VALID,0,VALID,95.364,VALID,0,VALID,19.8095,VALID,357,VALID,0,
2005-04-10, 03:09:00,VALID,918.715,VALID,0,VALID,95.3602,VALID,0.0169808,VALID,19.8065,VALID,357,VALID,0,
2005-04-10, 03:10:00,VALID,918.721,VALID,0,VALID,95.4021,VALID,0,VALID,19.8036,VALID,351,VALID,0.415365,
2005-04-10, 03:11:00,VALID,918.737,VALID,0,VALID,95.3627,VALID,0.0169808,VALID,19.813,VALID,350,VALID,0.18002,
2005-04-10, 03:12:00,VALID,918.727,VALID,0,VALID,95.3004,VALID,0.0169808,VALID,19.8065,VALID,350,VALID,0.068859,
2005-04-10, 03:13:00,VALID,918.723,VALID,0,VALID,95.1885,VALID,0.0169808,VALID,19.8329,VALID,347,VALID,0.51029,
2005-04-10, 03:14:00,VALID,918.71,VALID,0,VALID,94.9965,VALID,0,VALID,19.849,VALID,353,VALID,0.831076,
2005-04-10, 03:15:00,VALID,918.723,VALID,0,VALID,94.4332,VALID,0,VALID,19.82,VALID,2,VALID,0.645461,
2005-04-10, 03:16:00,VALID,918.728,VALID,0,VALID,94.8693,VALID,0,VALID,19.7293,VALID,2,VALID,0.894903,
2005-04-10, 03:17:00,VALID,918.724,VALID,0,VALID,95.1453,VALID,0,VALID,19.704,VALID,8,VALID,0.900073,
2005-04-10, 03:18:00,VALID,918.719,VALID,0,VALID,95.2584,VALID,0,VALID,19.6548,VALID,359,VALID,0.602865,
2005-04-10, 03:19:00,VALID,918.704,VALID,0,VALID,95.2572,VALID,0.0169808,VALID,19.6354,VALID,350,VALID,0.714844,
2005-04-10, 03:20:00,VALID,918.691,VALID,0,VALID,95.3373,VALID,0,VALID,19.6128,VALID,348,VALID,0.408727,
2005-04-10, 03:21:00,VALID,918.693,VALID,0,VALID,95.4466,VALID,0.0169808,VALID,19.5969,VALID,347,VALID,0.103299,
2005-04-10, 03:22:00,VALID,918.716,VALID,0,VALID,95.4339,VALID,0.0169808,VALID,19.5997,VALID,339,VALID,0.382254,
2005-04-10, 03:23:00,VALID,918.715,VALID,0,VALID,95.3462,VALID,0,VALID,19.6389,VALID,344,VALID,0.661882,
2005-04-10, 03:24:00,VALID,918.731,VALID,0,VALID,95.1631,VALID,0,VALID,19.665,VALID,359,VALID,0.706143,
2005-04-10, 03:25:00,VALID,918.737,VALID,0,VALID,95.0003,VALID,0,VALID,19.6679,VALID,2,VALID,0.638021,
2005-04-10, 03:26:00,VALID,918.743,VALID,0,VALID,95.1097,VALID,-0.0169808,VALID,19.6548,VALID,348,VALID,0.652902,
2005-04-10, 03:27:00,VALID,918.728,VALID,0,VALID,95.191,VALID,-0.0169808,VALID,19.655,VALID,349,VALID,0.523065,
2005-04-10, 03:28:00,VALID,918.723,VALID,0,VALID,95.2038,VALID,0,VALID,19.6809,VALID,351,VALID,0.448661,
2005-04-10, 03:29:00,VALID,918.725,VALID,0,VALID,95.1262,VALID,0,VALID,19.7035,VALID,353,VALID,0.601004,
2005-04-10, 03:30:00,VALID,918.718,VALID,0,VALID,95.0448,VALID,0,VALID,19.7134,VALID,354,VALID,0.669271,
2005-04-10, 03:31:00,VALID,918.717,VALID,0,VALID,94.8719,VALID,0,VALID,19.739,VALID,6,VALID,0.630022,
2005-04-10, 03:32:00,VALID,918.706,VALID,0,VALID,94.793,VALID,0,VALID,19.7452,VALID,3,VALID,0.408558,
2005-04-10, 03:33:00,VALID,918.702,VALID,0,VALID,94.8083,VALID,0,VALID,19.7616,VALID,360,VALID,0.612153,
2005-04-10, 03:34:00,VALID,918.679,VALID,0,VALID,94.6633,VALID,-0.0169808,VALID,19.7738,VALID,1,VALID,0.591332,
2005-04-10, 03:35:00,VALID,918.66,VALID,0,VALID,94.4993,VALID,0,VALID,19.7454,VALID,14,VALID,0.999814,
2005-04-10, 03:36:00,VALID,918.655,VALID,0,VALID,94.9355,VALID,0,VALID,19.7489,VALID,17,VALID,1.1529,